Regional Weather Roundup
Issued by NWS Wakefield, VA

Home | Current Version | Previous Version | Graphics & Text | Print | Product List | Glossary On
Versions: 1 2 3 4 5 6 7 8 9 10 11 12 13 14 15 16 17 18 19 20 21 22 23 24 25 26 27 28 29 30 31 32 33 34 35 36 37 38 39 40 41 42 43 44 45 46 47 48 49 50
000
ASUS41 KAKQ 040415
RWRAKQ

REGIONAL WEATHER ROUNDUP
NATIONAL WEATHER SERVICE WAKEFIELD VA
1200 AM EDT TUE AUG 04 2015

Note: "fair" indicates few or no clouds below 12,000 feet with no
significant weather and/or obstructions to visibility. * = Denotes
station may not report precipitation (e.g., rain,snow,etc.),
thunder or fog.

VAZ042-051-052>054-056-040500-
NORTHERN VIRGINIA

CITY           SKY/WX    TMP DP  RH WIND       PRES   REMARKS
WASH NATIONAL  MOCLDY    82  68  62 S8        29.84S
DULLES         PTCLDY    77  63  61 S8        29.84R
FORT BELVOIR   CLEAR     74  69  84 CALM      29.84R
QUANTICO       NOT AVBL
FREDERICKSBRG* CLEAR     80  69  67 SW9       29.85R
STAFFORD*      CLEAR     73  66  77 CALM      29.90R
WARRENTON      CLEAR     74  67  78 SW3       29.86R
CULPEPER*      CLEAR     71  64  80 SW3       29.87R
MANASSAS*      CLEAR     72  66  83 CALM      29.85R
LEESBURG*      CLEAR     77  68  73 SW5       29.86R
WINCHESTER     MOCLDY    79  63  57 SW5       29.87R
FRONT ROYAL*   FAIR      77  63  61 SW6       29.87R
LURAY*         FAIR      77  63  61 SW5       29.89R
$$

VAZ048-049-060>072-079>083-040500-
CENTRAL AND SOUTH CENTRAL VIRGINIA

CITY           SKY/WX    TMP DP  RH WIND       PRES   REMARKS
RICHMOND       PTCLDY    78  70  76 S8        29.89R
CHESTERFIELD*  FAIR      77  61  57 S6        29.91R
PETERSBURG*    CLEAR     78  75  93 S5        29.92R
HANOVER        CLEAR     77  70  79 S7        29.90R
TAPPAHANNOCK*  CLEAR     77  69  77 S5        29.89R
QUINTON*       FAIR      78  73  83 CALM      29.88S
CHARLOTTSVILLE PTCLDY    72  65  78 SW3       29.89R
GORDONSVILLE*  FAIR      68  66  94 CALM      29.88R
ORANGE*        CLEAR     72  66  83 CALM      29.89R
LOUISA*        CLEAR     75  66  73 S3        29.88R
BUMPASS*       FAIR      74  67  79 SW3       29.88R
FARMVILLE*     CLEAR     72  68  86 CALM      29.90R
CREWE*         FAIR     N/A N/A N/A S5        29.91R
FORT PICKETT*  FAIR      75  71  86 S10       29.92R
CHASE CITY*    FAIR      79  74  85 S5        29.94R
CLARKSVILLE*   FAIR      73  70  88 S7        29.93R
SOUTH HILL*    CLEAR     77  71  81 S8        29.99R
LAWRENCEVILLE* FAIR      77  72  83 S5        29.93R
EMPORIA*       CLEAR     75  72  88 SE3       29.94R
$$

VAZ088>098-040500-
SOUTHEAST VIRGINIA

CITY           SKY/WX    TMP DP  RH WIND       PRES   REMARKS
NORFOLK        CLEAR     79  72  79 S12       29.92S
VIRGINIA BEACH CLEAR     80  72  76 SW16G22   29.92S
NORFOLK NAVAL  CLEAR     78  73  84 S8        29.93S
WEST POINT*    CLEAR     82  74  75 S6        29.90S
SALUDA*        FAIR      79  75  87 S9G16     29.88S
NEWPORT NEWS   CLEAR     80  75  84 S14       29.91S
LANGLEY AFB    CLEAR     80  75  85 S12       29.91R
FORT EUSTIS    CLEAR     80  80 100 S8        29.89S
WILLIAMSBURG*  CLEAR     82  77  83 S8        29.91S
HR EXEC AP*    FAIR      77  72  83 S9        29.95R
FRANKLIN*      CLEAR     78  73  86 S9        29.93S
WAKEFIELD      CLEAR     78  73  84 S6        29.91S
$$

VAZ020-022-025-037-045-040500-
WEST CENTRAL AND SOUTHWEST VIRGINIA

CITY           SKY/WX    TMP DP  RH WIND       PRES   REMARKS
STAUNTON*      PTCLDY    74  62  65 CALM      29.94R
WAYNESBORO*    FAIR      72  60  65 S3        29.95R
HOT SPRINGS VA MOCLDY    71  58  64 W16       30.07S
LYNCHBURG      CLEAR     69  64  84 CALM      29.94S
DANVILLE       CLEAR     76  66  71 S5        29.93R
SOUTH BOSTON*  FAIR      75  69  81 S5        29.93S
MARTINSVILLE   CLEAR     69  69 100 CALM      29.98S
ROANOKE        PTCLDY    76  60  57 CALM      29.97R
BLACKSBURG     MOCLDY    68  62  81 CALM      30.05R
DUBLIN*          N/A     72  62  72 W6        30.03S
MARION*        CLOUDY    65  62  90 CALM      30.09S
HILLSVILLE*    MOCLDY    72  59  64 SW5       30.05S
RICHLANDS*     FAIR      73  60  63 W6        30.07S
WISE*          CLOUDY    72  59  64 SW5       30.08S
ABINGDON*      MOCLDY    70  61  73 CALM      30.05S
$$

MDZ021>025-VAZ099-100-040500-
SOUTHERN MARYLAND AND THE DELMARVA PENINSULA

CITY           SKY/WX    TMP DP  RH WIND       PRES   REMARKS
PATUXENT RIVER CLEAR     80  71  74 SW10      29.86R
BAY BRIDGE APT   N/A     81  70  69 S5        29.83S
LEONARDTOWN    CLEAR     79  70  73 CALM      29.88R
DOVER          CLEAR     77  74  90 S7        29.82F
GEORGETOWN     CLEAR     76  73  91 S9        29.87S
EASTON         CLEAR     81  75  82 SW9       29.88S
CAMBRIDGE      CLEAR     79  72  78 S6        29.85S
SALISBURY      FAIR      77  74  90 S8        29.87S
OCEAN CITY     CLEAR     80  75  84 SW14      29.88S
WALLOPS ISLAND CLEAR     78  77  96 S12       29.89F
ACCOMACK*      CLEAR     79  79 100 S9        29.89F
$$

NCZ012>017-030>032-040500-
NORTH CENTRAL AND EASTERN NORTH CAROLINA

CITY           SKY/WX    TMP DP  RH WIND       PRES   REMARKS
ROANOKE RAPIDS FAIR      77  72  83 S6        29.94R
RALEIGH        PTCLDY    80  68  66 SW14G20   29.97R
ELIZABETH CITY PTCLDY    77  74  90 S10       29.96R
AHOSKIE*       CLEAR     75  71  85 S5        29.95R
EDENTON*         N/A     76  73  88 S10       29.97R
CURRITUCK*     CLEAR     78  71  79 S6        29.96S
KILL DEVIL HLS CLEAR     78  73  84 S7        29.96S
MANTEO         CLEAR     78  74  87 SW14      29.98S
CAPE HATTERAS  MOCLDY    79  75  87 S14G20    30.00S
TARBORO*         N/A     77  72  83 S3        29.97R
GOLDSBORO      CLEAR     76  74  94 S5        29.96R
WASHINGTON     CLEAR     75  73  93 S6        29.98S
GREENVILLE     CLEAR     77  73  88 SW9       29.99R
NEW BERN       PTCLDY    77  73  87 S6        30.00R
WILMINGTON     MOCLDY    78  75  90 S6        29.98S
$$

VAZ048-040500-
ELSEWHERE

CITY           SKY/WX    TMP DP  RH WIND       PRES   REMARKS
HARRISBURG PA  MOCLDY    76  69  79 CALM      29.81S
BALTIMORE      PTCLDY    78  66  66 SW5       29.83R
ANNAPOLIS      CLEAR     79  69  71 S5        29.83S
ANDREWS AFB    CLEAR     77  67  70 S9        29.84S
PHILADELPHIA   PTCLDY    80  69  69 S7        29.82F
HENDERSON NC   CLEAR     77  67  69 S8        29.95R
GREENSBORO     CLEAR     79  68  69 S8        29.96R
ROCKY MOUNT    CLEAR     78  72  81 S8        29.96R
$$

VAZ100-040500-
MARINE

STATION/POSITION TIME  TEMP    WIND        PRES    WAVE   SWELL
                       AIR SEA DIR/SP/G            HT/PER HT/PER
                 (UTC) (F)     (DEG/KT/KT) (MB)    (FT/S) (FT/S)
BRANDYWINE LGT   0300   77 76  200/ 14/ 14 1011.2R
CAPE MAY NJ      0300   77 78  170/  7/ 11 1010.9R
LEWES DE         0300   80 73  200/  7/ 11 1011.0F
15NM E FENWICK I 0350   80 79  190/ 19/ 25 1011.5F   6/ 7   2/11
OCEAN-CITY-INLET 0300   78 77  210/ 16/ 19 1011.0F
WACHAPREAGUE VA  0300   81 84  230/  8/ 13 1012.6R
GOOSES REEF MD   0400   83 82  210/ 12/ 14 1011.9R
COVE POINT MD    0300   81     220/ 11/ 16 1011.3F
SOLOMONS ISLAND  0300      84                N/A
BISHOPS HEAD MD  0300   83 84  200/ 13/ 17 1010.2F
PINEY POINT MD   0300          220/ 14/ 16   N/A
POTOMAC MD       0400   82 83  210/ 14/ 17 1010.0F   2/ 3
CAMBRIDGE MD     0300   80 84  180/  4/  5 1009.9F
LEWISETTA VA     0300   81 85  220/ 11/ 14 1010.7F
RAPPAHANNOCK LGT 0300          190/ 18/ 19 1012.9R
STINGRAY PT      0400   82 84  200/ 16/ 17 1011.9F   2/ 2
YORK RVR RNG VA  0300   81     210/ 13/ 14 1012.1R
YORKTOWN VA      0300   82 84  190/  7/ 10 1012.2F
JAMESTOWN VA     0400   80 85  190/ 14/ 17   N/A
DOMINION TERM VA 0300   81     200/ 13/ 16 1012.6R
KIPTOPEKE VA     0300      82  210/ 12/ 13   N/A
CHES BAY BRIDGE  0300   81 78  180/ 14/ 19 1012.5R
CAPE HENRY VA    0300   79     200/ 12/ 16   N/A
CHESAPEAKE LGHT  0300   79     200/ 20/ 21 1013.8R
WILLOUBY STN VA  0300   81     210/ 14/ 17 1013.7R
CAPE HENRY BUOY  0328      81                N/A     3/ 5
1ST LANDING BUOY 0400      81              1012.6S   2/ 3
CAPE CHARLES BUO 0326      77                N/A     3/ 5   2/11
OFFSHORE WE BUOY 0311      82                N/A     5/ 6   2/12
64NM E OF VA BCH 0350   80 81  210/ 23/ 27 1013.8R   6/ 6   2/11
DUCK PIER NC     0300   78 65  200/ 16/ 20 1013.6R
44100 DUCK FRF   0324      79                N/A     3/ 5   2/11
44056 DUCK FRF   0311      68                N/A     2/12   2/12
OREGON INLET NC  0300   80 80  200/ 18/ 23 1015.0R
HATTERAS NC      0300   79 79  180/  5/ 11 1015.5R
DIAMOND SHLS NC  0350   82 84  180/ 19/ 23 1015.9R   5/ 7   2/11


USA.gov is the U.S. government's official web portal to all federal, state and local government web resources and services.